Aérodrome :
LOGIN :

S'inscrire | Disclaimer

   EN    FR    IT 

 










Légende :    VFR   VFR Marginal   IFR   IFR Intensif   IFR Très Intensif
Visi : 
Plafond : 
>= 8 km
>= 3000ft
5 à 8 km
1000 à 3000 ft
1500m à 5 km
500 à 1000 ft
800 à 1500m
200 à 500 ft
< 800m
< 200 ft
Symboles :   Orages  Brouillard  Fortes neiges  Fortes précipitations  Vent > 20 kt
SIGMETs :   Divers  Orages  Givrage  Turbulence  Onde Orograph.  Cendres Volcan.







- Altitude de l'aérodrome : 112 ft
- Code IATA : SVQ


LEZL - Sevilla San Pablo

DERNIER METAR :
  • 141700Z 07006KT 9999 FEW045 21/14 Q1015 NOSIG

METARs EXPIRÉS :
  • 141630Z 07005KT 030V090 9999 FEW045 22/15 Q1015 NOSIG
  • 141600Z 05005KT 020V080 9999 FEW045 21/15 Q1015 NOSIG
  • 141530Z 04007KT 9999 FEW045 21/15 Q1015 NOSIG
  • 141500Z 05009KT 9999 FEW047 22/14 Q1015 NOSIG
  • 141430Z 05009KT CAVOK 22/14 Q1015 NOSIG

TAF TAF LEZL
Valide du 14 à 15h jusqu'au 15 à 15h UTC


141400Z 1415/1515 06010KT CAVOK TX22/1415Z TN13/1506Z
Pas de NOTAMs connus pour ce terrain.



MET'MAP, la Météo Aéronautique d'un coup d'oeil ! - Copyright ORBIFLY Décembre 2007 - Disclaimer

ORBIFLY MET'MAP TEAM :

Programmation & Développement : Alexandra Zaïnal
Conception & Développement : Baudouin d'Aumeries
Co-Programmation & Développement : Marc-Olivier Méhu
Soutien technique & logistique : Manuel Goepfert

Contact : metmap@orbifly.com




SOURCES & CREDITS :

   NOAA